Time,TemperatureF,DewpointF,PressureIn,WindDirection,WindDirectionDegrees,WindSpeedMPH,WindSpeedGustMPH,Humidity,HourlyPrecipIn,Conditions,Clouds,dailyrainin,SoftwareType,DateUTC
2013-06-07 00:01:00,67.8,66.0,29.68,NNW,337,0.0,-999.0,94,-99.99,,,0.02,Acu-Link.com,2013-06-07 04:01:00,
2013-06-07 00:17:00,67.8,66.0,29.68,NW,315,0.0,-999.0,94,-99.99,,,0.03,Acu-Link.com,2013-06-07 04:17:00,
2013-06-07 00:32:00,67.8,66.3,29.68,NW,315,0.0,-999.0,95,-99.99,,,0.04,Acu-Link.com,2013-06-07 04:32:00,
2013-06-07 00:47:00,67.8,66.3,29.67,NW,315,0.0,-999.0,95,-99.99,,,0.05,Acu-Link.com,2013-06-07 04:47:00,
2013-06-07 01:02:00,67.6,66.1,29.66,WNW,292,0.0,-999.0,95,-99.99,,,0.07,Acu-Link.com,2013-06-07 05:02:00,
2013-06-07 01:18:00,67.6,66.1,29.65,NNW,337,0.0,-999.0,95,-99.99,,,0.10,Acu-Link.com,2013-06-07 05:18:00,
2013-06-07 01:33:00,67.6,66.4,29.65,WNW,292,0.0,-999.0,96,-99.99,,,0.11,Acu-Link.com,2013-06-07 05:33:00,
2013-06-07 01:48:00,67.6,66.4,29.64,NW,315,0.0,-999.0,96,-99.99,,,0.12,Acu-Link.com,2013-06-07 05:48:00,
2013-06-07 02:04:00,67.5,66.3,29.63,NW,315,0.0,-999.0,96,-99.99,,,0.13,Acu-Link.com,2013-06-07 06:04:00,
2013-06-07 02:19:00,67.5,66.3,29.62,NW,315,0.0,-999.0,96,-99.99,,,0.16,Acu-Link.com,2013-06-07 06:19:00,
2013-06-07 02:34:00,67.5,66.3,29.61,North,0,0.0,-999.0,96,-99.99,,,0.18,Acu-Link.com,2013-06-07 06:34:00,
2013-06-07 02:49:00,67.3,66.1,29.61,WNW,292,0.0,-999.0,96,-99.99,,,0.19,Acu-Link.com,2013-06-07 06:49:00,
2013-06-07 03:04:00,67.3,66.1,29.60,NW,315,0.0,-999.0,96,-99.99,,,0.21,Acu-Link.com,2013-06-07 07:04:00,
2013-06-07 03:20:00,67.3,66.1,29.60,WNW,292,0.0,-999.0,96,-99.99,,,0.22,Acu-Link.com,2013-06-07 07:20:00,
2013-06-07 03:35:00,67.1,65.9,29.59,NNW,337,0.0,-999.0,96,-99.99,,,0.24,Acu-Link.com,2013-06-07 07:35:00,
2013-06-07 03:51:00,67.1,65.9,29.58,North,0,0.0,-999.0,96,-99.99,,,0.24,Acu-Link.com,2013-06-07 07:51:00,
2013-06-07 04:06:00,66.9,65.7,29.57,NW,315,0.0,-999.0,96,-99.99,,,0.25,Acu-Link.com,2013-06-07 08:06:00,
2013-06-07 04:22:00,66.9,65.7,29.57,WNW,292,0.0,-999.0,96,-99.99,,,0.26,Acu-Link.com,2013-06-07 08:22:00,
2013-06-07 04:37:00,66.7,65.5,29.57,NW,315,0.0,-999.0,96,-99.99,,,0.27,Acu-Link.com,2013-06-07 08:37:00,
2013-06-07 04:52:00,66.7,65.5,29.56,NW,315,0.0,-999.0,96,-99.99,,,0.28,Acu-Link.com,2013-06-07 08:52:00,
2013-06-07 05:08:00,66.7,65.5,29.57,NW,315,0.0,-999.0,96,-99.99,,,0.28,Acu-Link.com,2013-06-07 09:08:00,
2013-06-07 05:23:00,66.7,65.5,29.56,NW,315,0.0,-999.0,96,-99.99,,,0.28,Acu-Link.com,2013-06-07 09:23:00,
2013-06-07 05:38:00,66.7,65.5,29.57,NW,315,0.0,-999.0,96,-99.99,,,0.28,Acu-Link.com,2013-06-07 09:38:00,
2013-06-07 05:54:00,66.7,65.5,29.57,NW,315,0.0,-999.0,96,-99.99,,,0.28,Acu-Link.com,2013-06-07 09:54:00,
2013-06-07 06:09:00,66.7,65.8,29.57,NW,315,0.0,-999.0,97,-99.99,,,0.28,Acu-Link.com,2013-06-07 10:09:00,
2013-06-07 06:24:00,66.7,65.8,29.57,NW,315,0.0,-999.0,97,-99.99,,,0.28,Acu-Link.com,2013-06-07 10:24:00,
2013-06-07 06:40:00,66.7,65.8,29.57,NW,315,0.0,-999.0,97,-99.99,,,0.28,Acu-Link.com,2013-06-07 10:40:00,
2013-06-07 06:55:00,66.7,65.8,29.57,NW,315,0.0,-999.0,97,-99.99,,,0.30,Acu-Link.com,2013-06-07 10:55:00,
2013-06-07 07:11:00,66.7,65.8,29.57,NW,315,0.0,-999.0,97,-99.99,,,0.30,Acu-Link.com,2013-06-07 11:11:00,
2013-06-07 07:41:00,66.7,65.8,29.57,NW,315,0.0,-999.0,97,-99.99,,,0.32,Acu-Link.com,2013-06-07 11:41:00,
2013-06-07 07:56:00,66.9,66.0,29.57,North,0,0.0,-999.0,97,-99.99,,,0.34,Acu-Link.com,2013-06-07 11:56:00,
2013-06-07 08:12:00,67.1,66.2,29.57,North,0,0.0,-999.0,97,-99.99,,,0.34,Acu-Link.com,2013-06-07 12:12:00,
2013-06-07 08:27:00,67.3,66.4,29.57,North,0,0.0,-999.0,97,-99.99,,,0.35,Acu-Link.com,2013-06-07 12:27:00,
2013-06-07 08:42:00,67.3,66.4,29.58,North,0,0.0,-999.0,97,-99.99,,,0.36,Acu-Link.com,2013-06-07 12:42:00,
2013-06-07 08:58:00,67.6,66.7,29.59,North,0,0.0,-999.0,97,-99.99,,,0.36,Acu-Link.com,2013-06-07 12:58:00,
2013-06-07 09:13:00,68.0,67.1,29.59,WNW,292,0.0,-999.0,97,-99.99,,,0.36,Acu-Link.com,2013-06-07 13:13:00,
2013-06-07 09:28:00,68.7,67.8,29.60,SW,225,0.0,-999.0,97,-99.99,,,0.37,Acu-Link.com,2013-06-07 13:28:00,
2013-06-07 09:43:00,69.3,68.4,29.60,NW,315,0.0,-999.0,97,-99.99,,,0.37,Acu-Link.com,2013-06-07 13:43:00,
2013-06-07 09:59:00,69.8,68.3,29.60,NW,315,0.0,-999.0,95,-99.99,,,0.37,Acu-Link.com,2013-06-07 13:59:00,
2013-06-07 10:14:00,70.2,68.4,29.60,East,90,0.0,-999.0,94,-99.99,,,0.37,Acu-Link.com,2013-06-07 14:14:00,
2013-06-07 10:29:00,70.3,68.5,29.60,NE,45,0.0,-999.0,94,-99.99,,,0.37,Acu-Link.com,2013-06-07 14:29:00,
2013-06-07 10:45:00,70.9,68.8,29.60,East,90,0.0,-999.0,93,-99.99,,,0.37,Acu-Link.com,2013-06-07 14:45:00,
2013-06-07 11:00:00,71.8,69.7,29.60,NW,315,0.0,-999.0,93,-99.99,,,0.37,Acu-Link.com,2013-06-07 15:00:00,
2013-06-07 11:16:00,72.7,70.2,29.61,SSW,202,0.0,-999.0,92,-99.99,,,0.37,Acu-Link.com,2013-06-07 15:16:00,
2013-06-07 11:31:00,73.2,70.7,29.60,West,270,0.0,-999.0,92,-99.99,,,0.37,Acu-Link.com,2013-06-07 15:31:00,
2013-06-07 12:02:00,74.8,72.0,29.61,West,270,0.0,-999.0,91,-99.99,,,0.37,Acu-Link.com,2013-06-07 16:02:00,
2013-06-07 12:17:00,75.2,72.4,29.62,SSW,202,0.0,-999.0,91,-99.99,,,0.37,Acu-Link.com,2013-06-07 16:17:00,
2013-06-07 12:32:00,74.3,71.2,29.61,NNE,22,2.2,-999.0,90,-99.99,,,0.37,Acu-Link.com,2013-06-07 16:32:00,
2013-06-07 12:48:00,75.6,71.8,29.61,NE,45,2.2,-999.0,88,-99.99,,,0.37,Acu-Link.com,2013-06-07 16:48:00,
2013-06-07 13:03:00,76.6,74.1,29.61,West,270,1.1,-999.0,92,-99.99,,,0.37,Acu-Link.com,2013-06-07 17:03:00,
2013-06-07 13:18:00,78.8,74.2,29.60,West,270,2.2,-999.0,86,-99.99,,,0.37,Acu-Link.com,2013-06-07 17:18:00,
2013-06-07 13:34:00,78.8,73.2,29.60,NE,45,1.7,-999.0,83,-99.99,,,0.37,Acu-Link.com,2013-06-07 17:34:00,
2013-06-07 13:49:00,79.3,74.0,29.60,ENE,67,1.1,-999.0,84,-99.99,,,0.37,Acu-Link.com,2013-06-07 17:49:00,
2013-06-07 14:04:00,80.2,74.9,29.60,NW,315,2.7,-999.0,84,-99.99,,,0.37,Acu-Link.com,2013-06-07 18:04:00,
2013-06-07 14:19:00,81.5,75.1,29.59,SE,135,0.0,-999.0,81,-99.99,,,0.37,Acu-Link.com,2013-06-07 18:19:00,
2013-06-07 14:35:00,83.3,77.2,29.59,SE,135,0.0,-999.0,82,-99.99,,,0.37,Acu-Link.com,2013-06-07 18:35:00,
2013-06-07 14:50:00,83.3,74.5,29.59,South,180,1.7,-999.0,75,-99.99,,,0.37,Acu-Link.com,2013-06-07 18:50:00,
2013-06-07 15:05:00,82.9,76.8,29.58,SSW,202,0.0,-999.0,82,-99.99,,,0.37,Acu-Link.com,2013-06-07 19:05:00,
2013-06-07 15:21:00,83.5,76.3,29.57,West,270,0.0,-999.0,79,-99.99,,,0.37,Acu-Link.com,2013-06-07 19:21:00,
2013-06-07 15:36:00,84.0,77.1,29.57,South,180,1.7,-999.0,80,-99.99,,,0.37,Acu-Link.com,2013-06-07 19:36:00,
2013-06-07 16:06:00,81.9,75.5,29.58,ESE,112,2.7,-999.0,81,-99.99,,,0.37,Acu-Link.com,2013-06-07 20:06:00,
2013-06-07 16:22:00,83.7,76.1,29.59,SW,225,0.0,-999.0,78,-99.99,,,0.37,Acu-Link.com,2013-06-07 20:22:00,
2013-06-07 16:37:00,74.7,64.2,29.60,NNW,337,5.3,-999.0,70,-99.99,,,0.37,Acu-Link.com,2013-06-07 20:37:00,
2013-06-07 16:52:00,70.7,66.3,29.61,WNW,292,0.0,-999.0,86,-99.99,,,0.44,Acu-Link.com,2013-06-07 20:52:00,
2013-06-07 17:07:00,69.4,66.0,29.60,West,270,2.2,-999.0,89,-99.99,,,0.47,Acu-Link.com,2013-06-07 21:07:00,
2013-06-07 17:23:00,69.8,67.0,29.60,South,180,0.0,-999.0,91,-99.99,,,0.68,Acu-Link.com,2013-06-07 21:23:00,
2013-06-07 17:38:00,70.9,68.5,29.60,South,180,0.0,-999.0,92,-99.99,,,0.68,Acu-Link.com,2013-06-07 21:38:00,
2013-06-07 17:53:00,71.2,68.8,29.60,SW,225,0.0,-999.0,92,-99.99,,,0.68,Acu-Link.com,2013-06-07 21:53:00,
2013-06-07 18:09:00,72.0,69.9,29.61,SW,225,0.0,-999.0,93,-99.99,,,0.68,Acu-Link.com,2013-06-07 22:09:00,
2013-06-07 18:39:00,72.5,70.4,29.61,SSW,202,0.0,-999.0,93,-99.99,,,0.68,Acu-Link.com,2013-06-07 22:39:00,
2013-06-07 19:25:00,71.6,69.5,29.64,West,270,1.1,-999.0,93,-99.99,,,0.69,Acu-Link.com,2013-06-07 23:25:00,
2013-06-07 19:41:00,70.7,67.9,29.66,West,270,0.0,-999.0,91,-99.99,,,0.70,Acu-Link.com,2013-06-07 23:41:00,
2013-06-07 19:56:00,69.3,66.6,29.67,WNW,292,1.7,-999.0,91,-99.99,,,0.71,Acu-Link.com,2013-06-07 23:56:00,
2013-06-07 20:11:00,68.9,66.8,29.66,NW,315,0.0,-999.0,93,-99.99,,,0.71,Acu-Link.com,2013-06-08 00:11:00,
2013-06-07 20:27:00,68.7,66.9,29.66,SSW,202,0.0,-999.0,94,-99.99,,,0.71,Acu-Link.com,2013-06-08 00:27:00,
2013-06-07 20:42:00,68.5,66.7,29.67,SSW,202,0.0,-999.0,94,-99.99,,,0.71,Acu-Link.com,2013-06-08 00:42:00,
2013-06-07 21:13:00,68.4,66.6,29.67,SSW,202,0.0,-999.0,94,-99.99,,,0.72,Acu-Link.com,2013-06-08 01:13:00,
2013-06-07 21:28:00,68.4,66.9,29.67,SSW,202,0.0,-999.0,95,-99.99,,,0.73,Acu-Link.com,2013-06-08 01:28:00,
2013-06-07 21:43:00,68.4,66.9,29.69,SSW,202,0.0,-999.0,95,-99.99,,,0.73,Acu-Link.com,2013-06-08 01:43:00,
2013-06-07 22:29:00,68.2,66.7,29.72,SSW,202,0.0,-999.0,95,-99.99,,,0.73,Acu-Link.com,2013-06-08 02:29:00,
2013-06-07 22:44:00,68.2,67.0,29.72,South,180,0.0,-999.0,96,-99.99,,,0.73,Acu-Link.com,2013-06-08 02:44:00,
2013-06-07 22:59:00,68.2,67.0,29.72,SSW,202,0.0,-999.0,96,-99.99,,,0.73,Acu-Link.com,2013-06-08 02:59:00,
2013-06-07 23:15:00,68.2,67.0,29.73,WNW,292,0.0,-999.0,96,-99.99,,,0.73,Acu-Link.com,2013-06-08 03:15:00,
2013-06-07 23:30:00,68.2,67.0,29.74,WNW,292,0.0,-999.0,96,-99.99,,,0.73,Acu-Link.com,2013-06-08 03:30:00,
2013-06-07 23:45:00,68.2,67.0,29.75,WSW,247,0.0,-999.0,96,-99.99,,,0.73,Acu-Link.com,2013-06-08 03:45:00,